This is the latest recevied weather packets stored in our database for station/object KK7KHO. If no packets are shown the sender has not sent any weather packets the latest 10 day(s).
| Time | Temp. | Humidity | Pressure | Rain* | Wind** | Luminosity | Snow |
|---|---|---|---|---|---|---|---|
| 1777596709 | 21.11° C | 64% | 1015.6 hPa | 0 mm | - | 228 W/m² | - |
| 1777596406 | 21.11° C | 63% | 1015.7 hPa | 0 mm | - | 238 W/m² | - |
| 1777596103 | 20.56° C | 63% | 1015.6 hPa | 0 mm | - | 249 W/m² | - |
| 1777595798 | 20.56° C | 65% | 1015.7 hPa | 0 mm | - | 254 W/m² | - |
| 1777595494 | 20.56° C | 64% | 1015.8 hPa | 0 mm | - | 231 W/m² | - |
| 1777595191 | 20.56° C | 65% | 1015.8 hPa | 0 mm | - | 289 W/m² | - |
| 1777594886 | 21.11° C | 64% | 1015.8 hPa | 0 mm | - | 313 W/m² | - |
| 1777594583 | 21.67° C | 63% | 1015.9 hPa | 0 mm | - | 336 W/m² | - |
| 1777594279 | 21.11° C | 63% | 1015.8 hPa | 0 mm | - | 363 W/m² | - |
| 1777593976 | 21.67° C | 64% | 1016.1 hPa | 0 mm | - | 392 W/m² | - |
| 1777593672 | 21.11° C | 65% | 1016.3 hPa | 0 mm | - | 410 W/m² | - |
| 1777593368 | 20.56° C | 65% | 1015.9 hPa | 0 mm | - | 403 W/m² | - |
| 1777593067 | 21.11° C | 64% | 1016.2 hPa | 0 mm | - | 280 W/m² | - |
| 1777592766 | 21.11° C | 63% | 1016.2 hPa | 0 mm | - | 320 W/m² | - |
| 1777592462 | 20.56° C | 63% | 1016.1 hPa | 0 mm | - | 279 W/m² | - |
| 1777592158 | 21.11° C | 62% | 1016.2 hPa | 0 mm | - | 253 W/m² | - |
| 1777591855 | 21.11° C | 62% | 1016.3 hPa | 0 mm | - | 255 W/m² | - |
| 1777591551 | 21.11° C | 61% | 1016.5 hPa | 0 mm | - | 342 W/m² | - |
| 1777591248 | 21.11° C | 62% | 1016.7 hPa | 0 mm | - | 279 W/m² | - |
| 1777590943 | 21.67° C | 62% | 1016.6 hPa | 0 mm | - | 326 W/m² | - |
| 1777590638 | 21.11° C | 63% | 1016.7 hPa | 0 mm | - | 367 W/m² | - |
| 1777590335 | 21.67° C | 63% | 1016.8 hPa | 0 mm | - | 294 W/m² | - |
| 1777590033 | 21.67° C | 61% | 1016.9 hPa | 0 mm | - | 358 W/m² | - |
| 1777589729 | 21.67° C | 61% | 1016.9 hPa | 0 mm | - | 387 W/m² | - |
| 1777589427 | 22.22° C | 61% | 1016.8 hPa | 0 mm | - | 440 W/m² | - |
* Rain latest hour (hover to see other rain measurements)
** Current wind speed in m/s (hover to see current wind gust speed)